Погода в Первомайском

Россия / Забайкальский край     51°40′09″N   115°38′17″E
темп.,
°C
ветер,
м/с
пор.,
м/с
влажн.,
%
обл.,
%
осадки,
мм/ч
давл.,
гПа
погр.,
м
15 мая, сб
сб1500:00+6ссз227376 0.3 101138
03:00+4зсз227825 0.3 101211
06:00+3зсз11770 0.0 101411
09:00+9зсз23500 0.0 1013481
12:00+14з57306 0.0 10112396
15:00+17з79205 0.0 10083169
18:00+18зсз79165 0.0 10063396
21:00+12зсз22284 0.0 100612
16 мая, вс
вс1600:00+10зсз7143311 0.0 1007439
03:00+7з714371 0.0 1009789
06:00+6з713450 0.0 1008917
09:00+10зсз912455 0.0 10081168
12:00+16зсз811295 0.0 10062049
15:00+17зсз121337100 0.0 10052345
18:00+15з81344100 0.0 10041999
21:00+13зсз61246100 0.0 1005513
17 мая, пн
пн1700:00+10зсз61157100 0.0 1006452
03:00+7зсз5116962 0.0 1007335
06:00+6з4107497 0.0 1006280
09:00+12з4752100 0.0 1004953
12:00+15з5845100 0.0 10011501
15:00+13з4862100 0.9 9991379
18:00+12зюз597120 0.8 998885
21:00+11зсз611644 0.8 998318
18 мая, вт
вт1800:00+7зсз611704 0.0 1001330
03:00+5зсз48535 0.0 1005163
06:00+3зсз375410 0.0 1007142
09:00+8зсз683533 0.0 10071338
12:00+12зсз6102567 0.0 10052714
15:00+15зсз8101825 0.0 10033113
18:00+14зсз811189 0.0 10033149
21:00+10зсз333175 0.0 100324
19 мая, ср
ср1900:00+8зсз113481 0.0 100410
03:00+8ююв2234100 0.0 100322
06:00+7в1141100 0.0 100113
09:00+5в1181100 2.3 1002120
12:00+9зсз3472100 0.3 1001713
15:00+12зсз4653100 0.3 9991710
18:00+16ююз693977 0.0 9971809
21:00+11з22395 0.0 99716